Rhodes, Greece

8:04 AM EEST on April 25, 2018 (GMT +0300)
Diagoras

Weather History for LGRP - April, 2018

Change the Weather History Date:

Tuesday, April 17, 2018

  Actual Average Record
Temperature  
Mean Temperature 67 °F -  
Max Temperature 70 °F 73 °F 74 °F (2016)
Min Temperature 64 °F 58 °F 51 °F (1997)
Cooling Degree Days 2    
Growing Degree Days 17 (Base 50)    
Moisture  
Dew Point 59 °F    
Average Humidity 73    
Maximum Humidity 88    
Minimum Humidity 32    
Precipitation  
Precipitation 0.00 in 0.02 in - ()
Sea Level Pressure  
Sea Level Pressure 29.97 in    
Wind  
Wind Speed 5 mph ()    
Max Wind Speed 13 mph    
Max Gust Speed -    
Visibility 4.8 miles    
Events      
Averages and records for this station are not official NWS values.
T = Trace of Precipitation, MM = Missing Value Source: Averaged Metar Reports

Daily Weather History Graph

Daily Weather History Graph

Search for Another Location

Airport or City:

Astronomy

Apr. 17, 2018 Rise Set
Actual Time 6:31 AM EEST 7:43 PM EEST
Civil Twilight 6:05 AM EEST 8:09 PM EEST
Nautical Twilight 5:33 AM EEST 8:41 PM EEST
Astronomical Twilight 5:00 AM EEST 9:15 PM EEST
Moon 7:38 AM EEST (4/17) 9:16 PM EEST (4/17)
Length of Visible Light 14h 04m
Length of Day
13h 11m
New Moon, 2% of the Moon is Illuminated
Apr 17
New Moon
Apr 23
First Quarter
Apr 30
Full
May 8
Last Quarter
May 15
New

Hourly Weather History & Observations

Time (EEST) Temp. Dew Point Humidity Pressure Visibility Wind Dir Wind Speed Gust Speed Precip Events Conditions
12:00 AM 71 °F 48 °F 32% 29.95 in 6 mi South 2.3 mph - -   Scattered Clouds
12:20 AM 71.6 °F 44.6 °F 38% 29.92 in - Variable 2.3 mph - N/A   Clear
12:50 AM 69.8 °F 51.8 °F 53% 29.95 in - ENE 1.2 mph - N/A   Clear
1:20 AM 68.0 °F 51.8 °F 56% 29.95 in - East 2.3 mph - N/A   Clear
1:50 AM 66.2 °F 51.8 °F 60% 29.95 in - East 1.2 mph - N/A   Clear
2:20 AM 66.2 °F 48.2 °F 52% 29.95 in - East 2.3 mph - N/A   Clear
2:50 AM 66.2 °F 50.0 °F 56% 29.95 in - WSW 2.3 mph - N/A   Clear
3:00 AM 65 °F 49 °F 46% 29.96 in 6 mi WSW 2.3 mph - -   Scattered Clouds
3:20 AM 68.0 °F 57.2 °F 68% 29.95 in - East 2.3 mph - N/A   Clear
3:50 AM 68.0 °F 60.8 °F 78% 29.95 in - East 9.2 mph - N/A   Clear
4:20 AM 66.2 °F 60.8 °F 83% 29.95 in - NE 4.6 mph - N/A   Clear
4:50 AM 66.2 °F 60.8 °F 83% 29.95 in - East 6.9 mph - N/A   Clear
5:20 AM 66.2 °F 60.8 °F 83% 29.95 in - ESE 8.1 mph - N/A   Clear
5:50 AM 66.2 °F 60.8 °F 83% 29.95 in - SE 6.9 mph - N/A   Clear
6:20 AM 66.2 °F 60.8 °F 83% 29.95 in - ESE 9.2 mph - N/A   Clear
6:50 AM 68.0 °F 59.0 °F 73% 29.95 in - SE 12.7 mph - N/A   Clear
7:20 AM 68.0 °F 59.0 °F 73% 29.95 in - SE 9.2 mph - N/A   Clear
7:50 AM 68.0 °F 57.2 °F 68% 29.95 in - SE 6.9 mph - N/A   Clear
8:20 AM 69.8 °F 57.2 °F 64% 29.95 in - ESE 5.8 mph - N/A   Clear
8:50 AM 71.6 °F 55.4 °F 57% 29.95 in - Variable 4.6 mph - N/A   Clear
9:00 AM 71 °F 55 °F 47% 29.97 in 6 mi 4.6 mph - -   Scattered Clouds
9:20 AM 69.8 °F 59.0 °F 68% 29.98 in - West 5.8 mph - N/A   Clear
9:50 AM 68.0 °F 62.6 °F 83% 29.98 in - West 6.9 mph - N/A   Clear
10:20 AM 68.0 °F 62.6 °F 83% 29.98 in - West 5.8 mph - N/A   Clear
10:50 AM 68.0 °F 62.6 °F 83% 30.01 in 6.2 mi West 5.8 mph - N/A   Partly Cloudy
11:20 AM 68.0 °F 62.6 °F 83% 29.98 in 5.6 mi West 6.9 mph - N/A   Partly Cloudy
11:50 AM 68.0 °F 62.6 °F 83% 30.01 in 5.6 mi West 8.1 mph - N/A   Partly Cloudy
12:50 PM 69.8 °F 62.6 °F 78% 29.98 in 5.6 mi West 9.2 mph - N/A   Partly Cloudy
1:20 PM 69.8 °F 62.6 °F 78% 30.01 in 5.6 mi West 9.2 mph - N/A   Partly Cloudy
1:50 PM 69.8 °F 62.6 °F 78% 30.01 in 5.6 mi West 8.1 mph - N/A   Partly Cloudy
2:20 PM 69.8 °F 62.6 °F 78% 30.01 in 5.6 mi West 9.2 mph - N/A   Partly Cloudy
3:00 PM 69 °F 62 °F 71% 30.01 in 4 mi West 8.1 mph - -   Mist
3:20 PM 69.8 °F 62.6 °F 78% 30.01 in 4.3 mi West 9.2 mph - N/A   Partly Cloudy
3:50 PM 69.8 °F 62.6 °F 78% 29.98 in 4.3 mi West 9.2 mph - N/A   Partly Cloudy
4:20 PM 69.8 °F 62.6 °F 78% 29.98 in 4.3 mi West 9.2 mph - N/A   Partly Cloudy
4:50 PM 69.8 °F 62.6 °F 78% 29.98 in 4.3 mi West 9.2 mph - N/A   Partly Cloudy
5:20 PM 69.8 °F 62.6 °F 78% 29.98 in 4.3 mi West 8.1 mph - N/A   Partly Cloudy
5:50 PM 68.0 °F 62.6 °F 83% 29.98 in 4.3 mi West 9.2 mph - N/A   Partly Cloudy
6:00 PM 69 °F 62 °F 71% 29.99 in 4 mi West 9.2 mph - -   Mist
6:20 PM 68.0 °F 62.6 °F 83% 29.98 in 4.3 mi West 8.1 mph - N/A   Partly Cloudy
6:50 PM 68.0 °F 60.8 °F 78% 29.98 in 4.3 mi West 8.1 mph - N/A   Partly Cloudy
7:20 PM 68.0 °F 60.8 °F 78% 29.98 in 4.3 mi WSW 9.2 mph - N/A   Partly Cloudy
7:50 PM 66.2 °F 57.2 °F 73% 29.98 in 4.3 mi WSW 6.9 mph - N/A   Partly Cloudy
8:20 PM 66.2 °F 57.2 °F 73% 29.98 in 4.3 mi SW 4.6 mph - N/A   Partly Cloudy
8:50 PM 66.2 °F 60.8 °F 83% 29.98 in 4.3 mi SW 4.6 mph - N/A   Partly Cloudy
9:00 PM 65 °F 60 °F 79% 30.00 in 4 mi SW 4.6 mph - -   Mist
9:20 PM 66.2 °F 60.8 °F 83% 29.98 in 4.3 mi SW 4.6 mph - N/A   Partly Cloudy
9:50 PM 64.4 °F 60.8 °F 88% 30.01 in 4.3 mi SW 5.8 mph - N/A   Partly Cloudy
10:20 PM 64.4 °F 60.8 °F 88% 30.01 in 4.3 mi SW 5.8 mph - N/A   Partly Cloudy
11:20 PM 64.4 °F 60.8 °F 88% 30.01 in 4.3 mi SW 4.6 mph - N/A   Partly Cloudy
11:50 PM 64.4 °F 60.8 °F 88% 30.01 in 4.3 mi SW 5.8 mph - N/A   Partly Cloudy